TimeCDT,TemperatureF,Dew PointF,Humidity,Sea Level PressureIn,VisibilityMPH,Wind Direction,Wind SpeedMPH,Gust SpeedMPH,PrecipitationIn,Events,Conditions,WindDirDegrees,DateUTC
12:15 AM,57.2,55.4,94,30.01,8.0,SSW,3.5,-,N/A,,Mostly Cloudy,210,2013-06-23 05:15:00
12:35 AM,57.2,57.2,100,30.03,10.0,SSW,5.8,-,N/A,,Mostly Cloudy,210,2013-06-23 05:35:00
12:55 AM,59.0,57.2,94,30.01,9.0,South,4.6,-,N/A,Thunderstorm,Overcast,180,2013-06-23 05:55:00
1:15 AM,59.0,57.2,94,29.99,4.0,Calm,Calm,-,0.06,Thunderstorm,Mostly Cloudy,0,2013-06-23 06:15:00
1:35 AM,59.0,57.2,94,29.98,5.0,South,6.9,-,0.12,,Mostly Cloudy,190,2013-06-23 06:35:00
1:55 AM,60.8,60.8,100,29.96,7.0,SSW,4.6,-,0.13,,Mostly Cloudy,210,2013-06-23 06:55:00
2:15 AM,62.6,60.8,94,29.94,9.0,WSW,4.6,-,N/A,,Partly Cloudy,240,2013-06-23 07:15:00
2:35 AM,62.6,62.6,100,29.94,9.0,South,8.1,-,N/A,,Partly Cloudy,190,2013-06-23 07:35:00
2:55 AM,62.6,60.8,94,29.92,8.0,South,9.2,-,N/A,,Scattered Clouds,170,2013-06-23 07:55:00
3:15 AM,62.6,62.6,100,29.90,8.0,SSE,11.5,-,N/A,,Partly Cloudy,150,2013-06-23 08:15:00
3:35 AM,60.8,60.8,100,29.90,4.0,SSE,11.5,-,N/A,,Mostly Cloudy,160,2013-06-23 08:35:00
3:55 AM,60.8,60.8,100,29.89,1.8,SSE,12.7,-,N/A,,Overcast,160,2013-06-23 08:55:00
4:15 AM,60.8,60.8,100,29.94,1.8,West,10.4,-,N/A,,Overcast,280,2013-06-23 09:15:00
4:35 AM,60.8,60.8,100,29.94,1.8,SW,8.1,-,N/A,,Overcast,220,2013-06-23 09:35:00
4:55 AM,60.8,60.8,100,29.94,1.2,South,4.6,-,N/A,,Overcast,180,2013-06-23 09:55:00
5:15 AM,60.8,60.8,100,29.95,1.2,SSW,3.5,-,N/A,,Overcast,200,2013-06-23 10:15:00
5:35 AM,60.8,60.8,100,29.94,2.0,Calm,Calm,-,N/A,,Overcast,0,2013-06-23 10:35:00
5:55 AM,60.8,59.0,94,29.93,1.8,SSE,3.5,-,N/A,,Mostly Cloudy,150,2013-06-23 10:55:00
6:15 AM,60.8,60.8,100,29.91,1.8,ESE,6.9,-,N/A,,Scattered Clouds,110,2013-06-23 11:15:00
6:35 AM,62.6,60.8,94,29.90,1.8,Calm,Calm,-,N/A,,Scattered Clouds,0,2013-06-23 11:35:00
6:55 AM,62.6,62.6,100,29.92,3.0,South,5.8,-,N/A,,Partly Cloudy,170,2013-06-23 11:55:00
7:15 AM,62.6,60.8,94,29.92,3.0,SSE,3.5,-,N/A,,Mostly Cloudy,160,2013-06-23 12:15:00
7:35 AM,64.4,62.6,94,29.94,3.0,ESE,3.5,-,N/A,,Overcast,120,2013-06-23 12:35:00
7:55 AM,62.6,62.6,100,29.95,5.0,SSE,4.6,-,N/A,,Overcast,150,2013-06-23 12:55:00
8:15 AM,64.4,62.6,94,29.94,5.0,East,4.6,-,N/A,,Scattered Clouds,90,2013-06-23 13:15:00
8:35 AM,64.4,62.6,94,29.95,5.0,East,5.8,-,N/A,,Clear,100,2013-06-23 13:35:00
8:55 AM,66.2,64.4,94,29.97,8.0,SE,4.6,-,N/A,,Clear,140,2013-06-23 13:55:00
9:15 AM,66.2,64.4,94,29.97,9.0,SSE,3.5,-,N/A,,Clear,150,2013-06-23 14:15:00
9:35 AM,68.0,64.4,88,29.95,8.0,SE,9.2,-,N/A,,Clear,140,2013-06-23 14:35:00
9:55 AM,68.0,66.2,94,29.96,10.0,Calm,Calm,-,N/A,,Clear,0,2013-06-23 14:55:00
10:15 AM,69.8,66.2,88,29.96,10.0,SE,3.5,-,N/A,,Clear,130,2013-06-23 15:15:00
10:35 AM,68.0,64.4,88,29.96,10.0,ESE,8.1,-,N/A,,Clear,120,2013-06-23 15:35:00
10:55 AM,68.0,62.6,83,29.95,10.0,SE,5.8,-,N/A,,Clear,130,2013-06-23 15:55:00
11:15 AM,69.8,66.2,88,29.95,10.0,South,8.1,-,N/A,,Clear,170,2013-06-23 16:15:00
11:35 AM,71.6,66.2,83,29.94,10.0,South,6.9,-,N/A,,Clear,170,2013-06-23 16:35:00
11:55 AM,71.6,66.2,83,29.94,10.0,South,6.9,-,N/A,,Clear,170,2013-06-23 16:55:00
12:15 PM,73.4,68.0,83,29.94,10.0,SSE,4.6,-,N/A,,Clear,160,2013-06-23 17:15:00
12:35 PM,75.2,69.8,83,29.93,10.0,South,8.1,-,N/A,,Clear,190,2013-06-23 17:35:00
12:55 PM,77.0,69.8,78,29.92,10.0,South,8.1,-,N/A,,Clear,190,2013-06-23 17:55:00
1:15 PM,78.8,69.8,74,29.92,9.0,South,5.8,-,N/A,,Clear,190,2013-06-23 18:15:00
1:35 PM,78.8,69.8,74,29.91,10.0,SSE,8.1,16.1,N/A,,Clear,150,2013-06-23 18:35:00
1:55 PM,75.2,66.2,73,29.91,10.0,SSE,12.7,-,N/A,,Clear,150,2013-06-23 18:55:00
2:15 PM,73.4,66.2,78,29.91,10.0,South,11.5,-,N/A,,Clear,170,2013-06-23 19:15:00
2:35 PM,75.2,66.2,73,29.90,10.0,SSE,13.8,19.6,N/A,,Clear,160,2013-06-23 19:35:00
2:55 PM,75.2,66.2,73,29.89,10.0,South,17.3,20.7,N/A,,Clear,170,2013-06-23 19:55:00
3:15 PM,75.2,66.2,73,29.87,10.0,SSE,15.0,24.2,N/A,,Clear,150,2013-06-23 20:15:00
3:35 PM,73.4,66.2,78,29.86,10.0,South,12.7,20.7,N/A,,Clear,170,2013-06-23 20:35:00
3:55 PM,73.4,66.2,78,29.86,10.0,SSE,11.5,20.7,N/A,,Clear,160,2013-06-23 20:55:00
4:15 PM,73.4,66.2,78,29.85,10.0,South,13.8,17.3,N/A,,Clear,170,2013-06-23 21:15:00
4:35 PM,75.2,66.2,73,29.86,10.0,South,13.8,18.4,N/A,,Clear,180,2013-06-23 21:35:00
4:55 PM,77.0,68.0,74,29.85,10.0,South,15.0,-,N/A,,Clear,170,2013-06-23 21:55:00
5:15 PM,75.2,68.0,78,29.85,10.0,South,12.7,18.4,N/A,,Clear,170,2013-06-23 22:15:00
5:35 PM,75.2,66.2,73,29.86,10.0,South,11.5,19.6,N/A,,Clear,180,2013-06-23 22:35:00
5:55 PM,77.0,69.8,78,29.86,10.0,South,13.8,19.6,N/A,,Partly Cloudy,180,2013-06-23 22:55:00
6:15 PM,78.8,69.8,74,29.86,10.0,South,13.8,19.6,N/A,,Clear,180,2013-06-23 23:15:00
6:35 PM,77.0,69.8,78,29.86,10.0,South,13.8,-,N/A,,Clear,180,2013-06-23 23:35:00
6:55 PM,77.0,69.8,78,29.87,10.0,South,11.5,-,N/A,,Clear,180,2013-06-23 23:55:00
7:15 PM,75.2,69.8,83,29.87,10.0,South,9.2,-,N/A,,Clear,180,2013-06-24 00:15:00
7:35 PM,75.2,68.0,78,29.87,10.0,South,8.1,-,N/A,,Clear,180,2013-06-24 00:35:00
7:55 PM,73.4,66.2,78,29.88,10.0,South,8.1,-,N/A,,Clear,180,2013-06-24 00:55:00
8:15 PM,73.4,68.0,83,29.88,10.0,South,9.2,-,N/A,,Clear,190,2013-06-24 01:15:00
8:35 PM,73.4,68.0,83,29.88,10.0,South,8.1,-,N/A,,Clear,180,2013-06-24 01:35:00
8:55 PM,73.4,68.0,83,29.88,9.0,South,8.1,-,N/A,,Clear,190,2013-06-24 01:55:00
9:15 PM,73.4,68.0,83,29.89,10.0,SSW,8.1,-,N/A,,Clear,200,2013-06-24 02:15:00
9:35 PM,73.4,68.0,83,29.90,10.0,SSW,6.9,-,N/A,,Clear,200,2013-06-24 02:35:00
9:55 PM,71.6,68.0,88,29.90,5.0,SSW,3.5,-,N/A,,Clear,200,2013-06-24 02:55:00
10:15 PM,69.8,66.2,88,29.90,10.0,South,6.9,-,N/A,,Clear,180,2013-06-24 03:15:00
10:35 PM,71.6,68.0,88,29.90,10.0,SSW,8.1,-,N/A,,Clear,200,2013-06-24 03:35:00
10:55 PM,71.6,68.0,88,29.91,10.0,SSW,8.1,-,N/A,,Clear,210,2013-06-24 03:55:00
11:15 PM,71.6,68.0,88,29.91,10.0,SSW,6.9,-,N/A,,Clear,200,2013-06-24 04:15:00
11:35 PM,71.6,68.0,88,29.92,10.0,SSW,5.8,-,N/A,,Clear,200,2013-06-24 04:35:00
11:55 PM,71.6,66.2,83,29.92,10.0,SSW,8.1,-,N/A,,Clear,210,2013-06-24 04:55:00